Dati Storici

Data ora Umidita' aria (%) Temperatura aria (°C) Rad globale (W/m²) Gonioanemometro (°) Tacoanemometro (m/s) Pioggia (mm)
04-06-2020 18:50 97.9 % 16.395 -62.217 3.599 0 0
04-06-2020 18:40 97.9 % 16.502 -65.599 2.342 0 0
04-06-2020 18:30 97.9 % 16.832 -60.682 1.741 0 0
04-06-2020 18:20 97.9 % 17.028 -63.185 3.925 0 0
04-06-2020 18:10 97.9 % 17.172 -50.607 2.027 0 0
04-06-2020 18:00 97.9 % 17.155 -47.284 2.938 0 0
04-06-2020 17:50 97.9 % 16.969 -54.565 2.89 0 0
04-06-2020 17:40 97.9 % 16.71 -59.741 0.465 0 0
04-06-2020 17:30 97.9 % 16.438 -64.562 2.017 0 0
04-06-2020 17:20 97.9 % 16.231 -69.749 1.057 0 0
04-06-2020 17:10 97.9 % 16.11 -47.784 1.165 0 0
04-06-2020 17:00 97.9 % 16.004 -73.204 1.783 0 0
04-06-2020 16:50 97.9 % 16.081 -67.021 1.124 0 0
04-06-2020 16:40 97.9 % 15.997 -54.191 0.801 0 0
04-06-2020 16:30 97.9 % 16.003 -66.266 1.194 0 0
04-06-2020 16:20 97.9 % 16.064 -57.776 1.05 0 0
04-06-2020 16:10 97.9 % 16.274 -56.179 1.679 0 0
04-06-2020 16:00 97.9 % 16.299 11.533 1.265 0 0
04-06-2020 15:50 97.9 % 16.5 9.443 2.157 0 0
04-06-2020 15:40 97.9 % 16.505 -41.285 1.424 0 0

I dati sono presentati in modo automatico a scopo informativo. In seguito a verifica i dati possono subire modifiche o essere invalidati e non riportati negli archivi definitivi.